Flag for U.S.A. Weather past 2 weeks in Bryan – College Station, Texas, U.S.A.

Now
79 °F

Low clouds.


Feels Like: 83 °F
Forecast: 77 / 97 °F
Wind: 8 mph from South

Location: Easterwood Field

Current Time: Aug 21, 2014 at 6:13:21 AM

Latest Report: Aug 21, 2014 at 4:53 AM


Visibility: 10 mi

Pressure: 29.99 "Hg

Humidity: 90%

Dew point: 76 °F

Location of Bryan – College StationLocation

Historic Weather in Bryan – College Station — Graph

°F

Bryan – College Station temperature yesterday

Maximum temperature yesterday: 97 °F (at 3:53 PM)
Minimum temperature yesterday: 77 °F (at 6:53 AM)
Average temperature yesterday: 83 °F

Past Weeks' High & Low Weather Summary

 TemperatureHumidityPressure
High98 °F (Aug 16, 3:53 PM)97% (Aug 7, 6:53 AM)30.06 "Hg (Aug 7, 6:53 AM)
Low71 °F (Aug 13, 6:53 AM)31% (Aug 13, 4:53 PM)29.82 "Hg (Aug 7, 7:53 PM)
Average84 °F67%29.95 "Hg
* Reported Aug 6 4:53 AM — Aug 21 4:53 AM, Bryan – College Station, Weather by CustomWeather, © 2014

Note: Actual official high and low records may vary slightly from our data, if they occured in-between our weather recording intervals... More about our weather records

Advertising

Bryan – College Station weather history for previous 24 hours

 ConditionsComfort  
Time TempWeatherWind HumidityBarometerVisibility
4:53 AM
Aug 21
79 °FLow clouds.8 mph90%29.99 "Hg10 mi
3:53 AM79 °FPassing clouds.8 mph90%29.98 "Hg10 mi
2:53 AM79 °FClear.10 mph90%29.99 "Hg10 mi
1:53 AM80 °FClear.9 mph85%30.00 "Hg10 mi
12:53 AM81 °FClear.12 mph82%29.99 "Hg10 mi
11:53 PM
Aug 20
82 °FClear.12 mph77%29.98 "Hg10 mi
10:53 PM83 °FClear.18 mph74%29.98 "Hg10 mi
9:53 PM82 °FClear.13 mph77%29.96 "Hg10 mi
8:53 PM82 °FSunny.13 mph74%29.93 "Hg10 mi
7:53 PM83 °FSunny.13 mph70%29.92 "Hg10 mi
6:53 PM83 °FSunny.14 mph70%29.91 "Hg10 mi
5:53 PM83 °FSunny.7 mph68%29.91 "Hg10 mi
4:53 PM81 °FThunderstorms. Broken clouds.12 mph79%29.93 "Hg7 mi
3:53 PM97 °FScattered clouds.10 mph42%29.89 "Hg10 mi
2:53 PM95 °FPassing clouds.12 mph44%29.92 "Hg10 mi
1:53 PM94 °FPassing clouds.9 mph46%29.94 "Hg10 mi
12:53 PM93 °FPassing clouds.12 mph52%29.96 "Hg10 mi
11:53 AM90 °FPassing clouds.10 mph57%29.98 "Hg10 mi
10:53 AM88 °FPassing clouds.10 mph63%29.98 "Hg10 mi
9:53 AM83 °FScattered clouds.12 mph79%29.98 "Hg10 mi
8:53 AM80 °FPartly sunny.6 mph87%29.98 "Hg10 mi
7:53 AM78 °FClear.5 mph90%29.96 "Hg10 mi
6:53 AM77 °FClear.6 mph94%29.95 "Hg10 mi
Weather by CustomWeather, © 2014

See weather overviewHow to use our weather pages